User: anonymous   Login
Location: Unspecified
(0.0000°N, 0.0000°E)
Time: 04:24:51
(UTC+00:00)
Language:

Italsat 1 - Orbit

View from above orbital plane
View from above orbital plane
View from above satellite
View from above satellite

Ground track
Ground track

The orbit data is extracted from the following two-line orbital elements,

1 21055U 91003A   18291.82010470 -.00000021  00000-0  00000+0 0  9992
2 21055  14.8601  14.8352 0014225 323.5040  56.5474  0.99952328 89217
Epoch (UTC): 18 October 2018 19:40:57
Eccentricity: 0.0014225
inclination: 14.8601°
perigee height: 35816 km
apogee height: 35936 km
right ascension of ascending node: 14.8352°
argument of perigee: 323.5040°
revolutions per day: 0.99952328
mean anomaly at epoch: 56.5474°
orbit number at epoch: 8921

The dashed part of the orbit path shows where the satellite is in the earth's shadow,  

DLR